Location: Antioch Baptist Church
(32.6696°N, 85.7327°W)
Time: 21:17:02
(UTC+00:00)

Cosmos 1867 - Pass Details

Date: 14 July 2020
Orbit: 778 x 798 km, 65.0° (Epoch: 13 August)

Event Time Altitude Azimuth Distance (km) Brightness Sun altitude
Exits shadow 08:50:01 37° 191° (S) 1,214 4.1 -20.6°
Maximum altitude 08:52:11 73° 116° (ESE) 828 3.6 -20.3°
Drops below altitude 10° 08:57:36 10° 32° (NNE) 2,363 7.2 -19.5°
Sets 09:00:02 0° 31° (NNE) 3,299 8.2 -19.1°
